Theta_e
321 321 321 322 323 323 322 323 323 323 322 323 323 323 323 323 324 328 322 321 323 343 339 327 324 324 332 334 334 336 322 317 317 317 320 326 325 331 335 333 335 337 337 346 352
320 320 320 321 322 322 322 322 322 322 322 322 322 323 323 324 330 327 325 340 337 338 329 320 318 324 332 330 330 327 321 318 322 322 321 324 323 326 329 332 333 337 344 349 351
319 319 320 320 320 321 321 322 322 322 322 321 322 323 323 325 329 326 338 341 344 338 330 322 323 329 328 329 326 327 320 321 321 322 324 323 324 327 326 326 335 336 343 346 348
318 318 319 319 319 319 321 321 321 321 321 321 322 323 324 329 317 331 341 342 345 336 326 323 325 326 325 323 325 321 322 321 321 322 322 321 325 323 326 331 336 340 346 347 345
317 318 318 318 318 319 319 320 320 320 320 321 322 323 325 322 323 334 346 338 332 322 324 321 321 325 322 322 323 321 320 322 323 323 323 324 323 322 324 332 337 341 345 345 345
316 316 316 317 318 318 319 318 318 319 320 322 324 321 325 313 331 332 330 328 325 322 323 323 321 325 323 321 320 322 321 322 323 323 325 322 323 324 332 334 335 341 343 345 344
315 315 316 316 316 317 318 317 317 318 321 324 323 326 319 316 331 334 328 326 323 325 322 325 325 321 322 320 322 322 319 322 322 322 322 324 320 321 333 335 337 340 343 344 345
314 315 315 315 316 316 316 316 317 320 323 323 324 329 317 324 331 330 329 324 324 325 327 326 326 322 321 323 320 318 319 314 320 320 323 322 317 325 332 333 337 339 342 344 346
314 314 314 315 315 315 314 315 319 323 325 326 330 325 316 325 321 330 328 322 322 322 326 326 325 320 318 313 312 315 309 312 314 320 319 319 316 327 332 333 337 340 343 345 347
313 314 314 314 314 314 313 314 322 324 327 331 327 319 319 314 321 327 328 322 319 320 319 320 319 315 314 312 305 308 309 310 310 318 317 316 316 323 331 332 336 340 343 345 347
313 313 313 313 313 313 315 323 322 322 325 317 318 315 316 323 325 322 325 320 320 316 313 318 313 309 312 313 314 312 310 309 312 317 316 315 315 319 326 330 333 338 343 344 345
312 313 313 313 312 312 315 318 316 315 311 318 317 317 319 322 316 319 325 316 315 310 315 314 309 314 315 313 311 310 309 310 312 316 316 315 315 319 323 326 329 334 341 343 344
311 312 312 311 311 314 317 318 319 319 311 314 316 315 316 319 316 317 320 318 315 312 313 311 313 315 312 310 309 310 309 310 311 315 316 314 313 316 321 324 328 332 337 343 343
311 311 311 309 310 316 316 321 320 320 307 309 310 313 316 317 313 322 322 319 317 313 314 313 315 312 310 310 311 308 313 311 311 310 306 315 304 315 318 319 326 329 333 336 343
311 310 310 309 314 312 318 319 320 319 297 311 311 319 317 313 315 316 324 320 315 314 315 312 312 312 310 310 313 311 315 312 312 311 310 310 307 312 317 313 320 324 330 335 342
310 310 309 315 317 316 317 318 319 304 296 307 312 310 310 312 313 317 319 322 321 316 316 315 317 315 314 314 314 316 313 313 313 311 304 309 308 308 313 316 318 326 329 334 339
309 308 309 315 313 317 317 315 303 299 309 306 307 311 310 309 310 314 314 314 312 308 309 312 313 315 316 312 315 314 311 304 303 303 302 312 308 310 316 318 320 322 328 334 338
307 307 312 315 318 317 315 308 299 305 306 310 309 310 307 310 310 312 312 311 315 313 310 307 305 312 316 313 312 312 311 305 299 300 303 311 305 312 319 320 324 328 330 334 337
306 317 315 317 318 316 310 301 303 307 307 306 308 306 307 309 309 311 311 311 314 315 309 308 307 313 314 316 315 311 309 314 307 309 304 307 310 316 319 318 322 328 331 333 337
312 312 314 319 319 312 306 301 307 307 307 307 303 307 305 307 306 309 310 313 313 316 318 312 306 313 314 315 315 313 315 307 307 300 299 305 307 309 315 315 327 330 331 334 337
312 308 314 317 315 307 300 304 308 309 308 305 306 305 308 308 308 308 309 311 315 315 317 314 311 309 312 310 310 311 309 311 310 309 301 300 304 313 317 318 321 329 333 336 337
313 304 316 316 303 305 302 307 304 307 308 307 306 308 306 307 307 308 308 311 314 314 310 315 312 307 309 313 315 315 313 312 306 306 308 307 306 319 320 322 322 329 335 338 339
312 310 317 314 300 302 306 306 307 307 306 306 305 306 309 307 306 307 309 313 312 313 312 314 309 305 306 311 313 310 312 313 314 314 309 305 307 315 321 324 327 330 336 338 338
313 304 309 309 309 307 305 304 304 307 306 307 306 307 307 306 310 308 308 310 311 313 323 319 312 309 304 306 312 308 309 311 312 307 308 307 310 317 319 322 331 332 336 335 340
312 310 311 302 305 306 307 305 303 303 307 309 306 306 305 304 306 306 310 310 310 312 315 316 310 312 311 311 311 310 309 310 309 310 308 310 310 315 323 327 328 334 337 335 337
307 308 312 308 308 307 302 305 302 305 307 305 305 307 307 305 306 305 309 310 310 313 314 317 311 313 310 311 310 308 309 309 311 311 312 313 312 323 328 331 329 334 337 336 336
311 313 310 305 305 305 306 305 305 306 309 311 309 308 307 310 313 316 316 317 318 316 314 315 313 311 306 309 309 305 309 310 311 313 313 310 318 325 327 329 330 332 338 337 338
Wind_Speed
15 15 15 15 14 15 15 15 14 14 13 14 13 11 13 11 14 7 4 5 1 4 4 6 9 11 10 9 10 13 6 6 6 10 10 7 5 6 5 9 4 5 8 18 18
15 15 15 16 16 16 15 15 15 15 14 13 14 12 12 11 11 9 1 2 1 7 10 8 7 8 11 3 6 11 3 14 10 7 7 7 5 4 7 13 8 9 12 18 19
16 16 17 17 18 17 16 16 16 16 15 14 13 14 11 14 10 8 5 3 4 8 13 7 6 10 7 6 3 7 12 5 6 7 5 6 5 2 2 6 18 12 15 17 17
16 17 18 18 18 18 18 17 17 17 16 15 14 13 12 9 2 7 5 4 6 12 8 7 8 10 9 8 2 7 4 2 7 3 3 6 8 2 3 12 7 11 17 16 16
17 18 19 20 19 19 20 19 19 17 17 15 13 12 10 9 7 8 6 8 10 6 8 7 9 8 10 1 5 10 3 2 3 3 6 5 10 5 5 7 7 13 17 17 15
18 19 19 19 19 19 20 19 19 17 17 14 11 11 9 9 3 10 7 9 6 8 4 7 3 4 6 4 10 5 6 7 7 3 7 8 9 3 10 6 9 13 14 16 15
18 19 19 21 21 20 20 20 20 18 14 11 6 7 9 3 1 8 9 4 1 7 4 2 3 11 3 10 2 9 11 14 11 3 8 10 12 6 9 6 11 12 12 14 13
18 19 20 21 21 22 22 21 19 14 9 7 5 10 7 4 1 6 6 5 4 5 6 1 7 11 8 5 11 13 15 13 11 2 4 12 11 8 6 10 12 11 12 13 12
19 19 21 21 21 21 20 21 14 8 6 7 8 8 4 5 10 11 8 5 6 5 2 4 11 12 7 13 14 15 14 14 7 2 4 8 5 9 3 7 12 10 12 12 12
20 20 20 21 21 21 21 13 6 7 10 10 8 8 8 7 10 7 6 5 6 8 7 10 9 11 12 11 9 6 12 5 5 6 4 11 5 9 5 7 12 11 12 12 13
21 21 22 22 21 20 17 7 8 9 12 12 2 5 3 5 5 10 10 9 8 10 12 10 10 13 12 3 12 10 8 9 5 3 9 11 4 10 7 7 9 11 12 13 13
22 22 23 24 23 21 10 9 8 7 10 15 13 7 3 5 8 12 13 11 10 12 13 6 12 1 5 6 8 8 9 11 6 1 9 12 8 10 6 5 5 11 14 13 14
22 22 23 25 25 10 7 7 7 8 9 12 12 14 12 11 11 16 16 16 11 14 11 15 10 6 6 9 10 11 11 7 10 2 12 12 16 15 11 6 5 7 11 14 13
21 22 21 27 9 4 6 4 8 4 8 14 11 10 14 11 11 9 17 12 10 11 11 10 6 5 9 12 10 14 7 8 8 11 10 1 10 11 11 10 13 8 9 10 12
21 21 20 12 13 6 7 5 7 5 9 14 12 8 11 15 11 14 16 13 11 9 7 6 6 10 11 9 5 4 1 6 9 11 13 10 7 3 8 4 9 4 8 9 12
22 21 21 6 9 9 7 6 5 9 10 10 10 13 16 18 9 14 16 16 9 9 10 16 3 7 11 8 8 5 8 11 11 12 12 13 6 7 6 10 6 10 2 8 13
24 22 10 9 2 5 7 7 9 12 6 11 13 17 19 15 17 13 19 18 13 12 14 15 13 9 7 9 10 9 11 9 11 12 9 8 5 8 8 6 5 5 5 8 12
27 21 9 10 6 7 7 10 12 13 8 5 3 12 18 18 18 17 17 17 20 14 11 11 15 18 12 15 9 12 14 12 14 9 3 7 3 5 7 3 6 3 3 10 13
30 7 8 5 6 6 9 12 11 9 5 7 9 12 15 15 11 16 19 18 18 18 13 8 5 4 1 11 14 14 12 15 17 17 13 12 7 9 8 3 8 7 6 10 11
7 6 5 1 6 8 10 18 10 4 5 8 10 6 14 13 12 16 17 17 18 18 14 2 6 9 11 9 10 18 6 11 9 15 15 13 3 5 8 2 17 9 8 9 11
7 7 6 7 7 9 13 18 18 5 5 6 11 6 13 12 15 15 12 4 15 16 14 14 7 8 7 12 13 9 12 13 16 10 10 8 4 16 6 4 7 10 10 10 10
7 5 6 7 9 10 13 20 1 5 9 8 6 9 6 4 8 12 17 9 8 9 16 16 8 11 12 7 5 8 12 15 10 13 10 11 6 19 8 8 3 11 12 11 12
6 3 5 8 9 11 16 14 3 14 11 10 9 6 3 6 6 8 6 13 4 8 6 11 8 11 13 10 13 11 13 12 10 12 14 14 3 7 8 9 4 11 13 11 10
6 6 5 8 11 10 13 11 12 8 12 8 7 1 7 7 5 6 7 7 4 10 8 5 11 12 13 3 15 13 15 14 13 12 12 16 16 15 6 11 10 10 13 13 12
5 3 7 7 11 11 9 7 16 11 13 10 9 11 10 9 10 7 12 10 9 4 6 9 12 13 17 17 9 11 10 14 13 14 18 9 4 23 16 6 6 9 13 13 13
7 6 1 5 4 8 7 12 11 13 6 10 14 12 10 9 11 9 10 9 10 12 12 11 8 14 16 16 10 13 12 14 10 13 14 20 12 6 10 11 7 9 12 13 13
6 4 7 4 9 10 10 13 13 11 7 12 9 12 9 5 9 10 11 7 7 7 8 8 10 11 13 17 15 14 13 14 14 14 15 11 6 16 10 10 7 5 12 13 13
Wind_Direction
9 3 0 354 347 346 340 335 335 333 336 329 323 324 311 314 297 216 234 39 48 162 250 246 236 248 238 251 247 259 245 102 60 49 85 101 99 109 76 120 76 60 60 115 140
2 358 355 350 349 342 335 335 331 332 331 331 321 319 308 315 267 231 93 176 278 242 237 217 216 221 227 214 224 256 235 57 38 44 29 93 358 90 209 119 128 110 107 124 147
359 353 352 349 346 338 334 333 329 330 329 330 321 311 304 303 262 68 189 207 227 224 268 261 265 255 237 240 202 306 74 107 91 37 11 337 171 138 7 177 134 151 142 148 152
354 351 348 346 341 336 331 332 329 328 323 324 318 309 307 253 2 69 169 205 229 267 245 222 226 225 222 204 191 268 56 353 45 359 325 342 334 287 52 69 74 138 152 156 164
351 349 345 341 337 333 329 333 329 324 322 320 316 309 283 237 71 120 178 185 227 233 236 224 224 249 240 209 227 263 97 262 252 283 335 323 273 348 327 75 111 131 154 165 166
350 347 342 337 334 331 328 328 324 323 316 313 306 309 252 264 85 140 165 185 245 233 200 243 283 332 324 264 265 44 273 274 271 305 248 282 291 182 106 105 132 146 162 171 165
349 345 339 336 332 329 326 324 319 316 313 313 295 282 268 350 29 156 189 240 170 276 191 339 295 238 55 238 232 262 258 242 224 285 290 304 244 148 100 141 132 155 172 169 167
347 343 336 334 330 327 323 318 315 304 310 295 275 266 289 87 233 184 192 181 204 210 304 239 264 281 259 345 253 241 240 258 142 259 120 283 106 108 156 152 141 160 169 161 173
344 341 335 330 326 323 318 313 308 294 279 270 248 242 252 139 198 193 199 221 175 203 215 271 256 255 211 243 242 218 253 210 114 114 331 280 343 124 168 148 139 163 164 167 173
343 338 333 327 325 321 314 286 290 261 219 228 262 259 210 217 160 168 169 229 195 189 210 235 236 236 215 231 259 279 203 191 265 167 234 260 265 132 154 173 155 165 170 175 184
340 335 332 326 323 320 316 223 212 191 223 257 78 267 135 116 155 196 178 195 216 213 230 207 244 221 234 320 354 321 306 303 295 105 264 275 286 281 133 196 160 168 176 189 194
338 333 330 325 319 314 279 269 44 343 295 220 246 260 264 246 184 187 182 203 200 218 224 192 234 319 47 286 268 259 261 252 235 71 260 274 288 295 150 226 201 181 172 200 185
336 332 329 323 318 283 289 18 336 324 258 215 217 222 198 212 227 180 197 217 200 222 198 256 73 73 228 225 250 242 262 271 280 220 252 253 258 242 180 177 200 232 190 184 203
334 329 330 324 296 352 235 62 315 331 267 169 194 208 192 216 229 205 198 203 213 240 214 248 224 203 229 245 236 267 166 280 274 267 281 166 295 173 165 192 177 203 206 201 192
330 327 324 325 316 241 33 306 328 243 259 139 132 98 194 207 131 187 183 208 242 202 234 202 218 211 238 236 217 296 357 255 274 272 267 267 239 241 175 209 132 119 178 192 162
326 323 323 227 220 283 299 299 243 228 240 159 147 187 185 206 182 147 182 224 234 252 216 276 117 257 232 221 237 299 253 240 251 255 255 237 274 287 55 42 28 138 128 171 163
323 316 291 302 10 346 292 237 225 239 134 154 185 179 194 183 199 189 188 194 206 206 214 213 215 216 248 221 207 211 247 243 219 219 242 100 247 312 2 90 36 1 118 160 155
319 314 194 258 315 285 245 223 247 213 200 45 237 196 205 177 205 191 191 204 221 218 273 208 201 199 186 243 202 218 259 272 294 286 54 165 274 78 52 346 137 150 167 149 161
311 200 229 173 222 248 232 223 220 245 79 239 176 221 208 197 209 197 208 212 205 226 244 213 216 130 248 211 238 248 244 260 277 272 266 283 252 182 135 204 141 116 129 150 158
298 252 158 168 216 221 230 241 237 23 315 256 228 237 193 201 193 192 198 216 216 200 241 328 253 179 163 234 236 258 288 241 231 266 282 265 273 204 146 163 119 135 155 151 161
251 231 102 163 196 219 221 230 237 144 232 277 245 201 281 184 201 196 211 132 221 185 213 241 229 158 167 213 239 187 238 255 286 287 283 276 151 1 356 91 101 131 148 161 162
285 235 130 198 203 220 225 238 311 215 217 242 294 292 203 236 245 258 226 196 206 225 202 222 222 251 220 223 257 293 236 220 247 229 260 277 285 193 147 137 145 136 144 159 158
274 3 156 233 223 217 225 243 148 234 216 216 229 251 245 219 263 247 245 84 154 241 223 217 229 239 243 220 204 242 243 250 271 284 277 278 61 40 296 134 102 139 141 155 150
273 205 155 208 276 295 223 220 205 250 262 240 250 267 212 226 209 213 240 134 202 251 8 346 246 243 255 1 290 192 238 236 229 248 244 244 262 188 132 115 120 144 150 164 164
247 1 3 193 214 229 270 226 220 187 242 207 218 230 219 230 211 223 235 158 206 114 219 241 243 256 262 276 262 264 224 212 235 244 258 262 144 326 85 64 81 155 157 169 174
313 332 238 309 306 248 162 222 251 229 196 215 240 216 225 239 237 228 209 229 230 175 226 232 241 260 270 263 245 260 242 261 251 240 252 263 308 130 103 86 74 152 168 180 183
1 252 274 119 205 239 192 226 223 251 173 294 212 247 224 247 325 24 330 336 344 313 253 227 238 247 249 241 234 232 245 251 237 251 253 266 16 10 71 78 79 163 174 187 187